sat.trackr.live / text

‹ back to catalog

TORO3

NORAD 68481 · 2026-067BT

PAYLOAD ACTIVE UNKNOWN

§ Identity

Operator
Country
ROC
Launch date
2026-03-30
Launch site
AFWTR
Launch vehicle
Mass (kg)
RCS (m²)

External: N2YO · Heavens-Above · Gunter

§ Orbital elements

Epoch: 2026-05-24T19:54:10.913472Z

Period
96.51 min
Inclination
97.7656°
Eccentricity
0.0004004
Mean motion
14.92085050 rev/d
Perigee alt
588.6 km
Apogee alt
594.2 km
Semi-major
6,969.6 km
B*
1.4713e-4
RAAN
103.5138°
Arg perigee
52.2862°
Mean anomaly
307.8719°
Rev number
824

§ Raw data

TORO31 68481U 26067BT  26144.82929298  .00001439  00000+0  14713-3 0  99992 68481  97.7656 103.5138 0004004  52.2862 307.8719 14.92085050  8246

JSON: /api/v1/satellites/68481 · /tle

For live sub-satellite position, see the globe view (requires WebGL).

§ Visibility from observer

Set your observer location to see the next 7 days of passes ≥ 10°. The values pass through the URL so the page stays shareable.

No JS? Fill the form by hand. The geolocation button needs JavaScript.

§ Radio — SatNOGS DB

ModeDescriptionDownlinkUplink
GFSK Mode U - GFSK4k8 - Transmitter 401.580 MHz

1 transmitter · refreshed weekly from db.satnogs.org